Content
SEND FEEDBACK

Daily
Averages
Monthly
Summary
India

AHMEDABAD, INDIA


Home > Asia > India
Elevation: 180 feet     Latitude: 23 04N     Longitude: 072 38E

WEATHER
 
SELECT A DAY
Number of Records: 210,224;   Date Range: 7/1/96 - 7/20/14
 
SHARE

PRINT THIS DATA

[ ← Previous Day ]
WEATHER ALMANAC - FEBRUARY 8, 2013
[ Next Day → ]
[ °C ]   °F
Weather ElementAverageHighLow
Temperature66.6 °F80.6 °F (3:10 pm)53.6 °F (6:10 am)
Dewpoint39.8 °F44 °F (2:30 am)35.6 °F (7:10 pm)
Humidity38.1 %62 % (6:10 am)13 % (2:30 pm)
Barometer29.96 in30.06 in (8:30 am)29.89 in (3:40 pm)
Wind Speed6.2 mph11.5 mph (10:10 am)
Weather ElementAverage
Visibility2.7 mi
Wind DirectionENE (51.1 °)

Weather ElementTotal
Precipitation---
Cooling Degree Days2.1 (Base 65)
Growing Degree Days17.1 (Base 50)
Averaged from 47 records on February 8, 2013
WEATHER CONDITIONS BREAKOUT
WIND DIRECTION BREAKOUT
WEATHER BY HOUR - FEBRUARY 8, 2013
[ °C ]   °F
Local TimeTemperatureDewpointHumidityBarometerVisibilityWind DirectionWind SpeedGust SpeedPrecipitationEventsConditions
1:10 AM59.0 °F41.0 °F51 %29.95 in2.5 miNE (40°)3.5 mphSmoke
1:40 AM59.0 °F42.8 °F55 %29.95 in2.5 miNNE (30°)3.5 mphSmoke
2:10 AM59.0 °F41.0 °F51 %29.95 in2.5 miNNE (30°)4.6 mphSmoke
2:30 AM60.0 °F44.0 °F45 %29.98 in2.0 miNorth5.8 mph
2:40 AM59.0 °F39.2 °F48 %29.95 in2.5 miNE (40°)5.8 mphSmoke
3:10 AM59.0 °F39.2 °F48 %29.95 in2.5 miNE (40°)6.9 mphSmoke
3:40 AM59.0 °F39.2 °F48 %29.95 in2.5 miNE (40°)9.2 mphSmoke
4:10 AM55.4 °F41.0 °F58 %29.95 in2.5 miNE (40°)5.8 mphSmoke
4:40 AM57.2 °F39.2 °F51 %29.95 in2.5 miNNE (30°)6.9 mphSmoke
5:10 AM55.4 °F39.2 °F54 %29.95 in2.5 miNE (40°)5.8 mphSmoke
5:30 AM59.0 °F43.0 °F43 %29.98 in2.0 miNE (50°)6.9 mph
5:40 AM55.4 °F39.2 °F54 %29.98 in2.5 miNE (40°)5.8 mphSmoke
6:10 AM53.6 °F41.0 °F62 %29.98 in2.5 miNE (40°)4.6 mphSmoke
6:40 AM53.6 °F39.2 °F58 %29.98 in2.5 miNE (50°)5.8 mphSmoke
7:10 AM53.6 °F39.2 °F58 %30.01 in2.2 miNE (50°)4.6 mphSmoke
8:30 AM60.0 °F41.0 °F38 %30.06 in1.0 miNorth4.6 mphSmoke
10:10 AM68.0 °F39.2 °F35 %30.04 in2.5 miEast (80°)11.5 mphSmoke
11:10 AM71.6 °F39.2 °F31 %30.04 in3.7 miENE (70°)11.5 mph
11:30 AM74.0 °F42.0 °F21 %30.06 in2.0 miEast (90°)6.9 mph
11:40 AM73.4 °F41.0 °F31 %30.01 in3.7 miENE (70°)11.5 mph
12:10 PM75.2 °F41.0 °F29 %30.01 in3.7 miEast (80°)10.4 mph
12:40 PM77.0 °F41.0 °F28 %30.01 in3.7 miEast (80°)10.4 mph
1:40 PM78.8 °F41.0 °F26 %29.95 in3.7 miENE (60°)10.4 mph
2:10 PM78.8 °F39.2 °F24 %29.95 in3.7 miENE (70°)8.1 mph
2:30 PM80.0 °F38.0 °F13 %29.96 in2.0 miNNE (20°)5.8 mph
2:40 PM78.8 °F39.2 °F24 %29.92 in3.7 miENE (60°)6.9 mph
3:10 PM80.6 °F39.2 °F23 %29.92 in3.7 miENE (60°)8.1 mph
3:40 PM80.6 °F39.2 °F23 %29.89 in3.7 miNE (50°)9.2 mph
4:10 PM80.6 °F39.2 °F23 %29.89 in3.7 miNE (40°)8.1 mph
4:40 PM80.6 °F39.2 °F23 %29.89 in3.7 miNE (50°)9.2 mph
5:10 PM80.6 °F39.2 °F23 %29.89 in3.7 miNNE (30°)8.1 mph
5:30 PM78.0 °F38.0 °F14 %29.94 in2.0 miNNW (340°)6.9 mph
5:40 PM78.8 °F39.2 °F24 %29.89 in3.7 miNE (40°)6.9 mph
6:10 PM77.0 °F37.4 °F24 %29.92 in3.7 miNE (40°)6.9 mph
7:10 PM71.6 °F35.6 °F27 %29.92 in2.5 miNE (50°)4.6 mphSmoke
7:11 PM68.0 °F37.4 °F33 %29.95 in2.5 miNE (50°)4.6 mphSmoke
7:40 PM68.0 °F37.4 °F33 %29.95 in2.5 miNE (50°)4.6 mphSmoke
8:10 PM66.2 °F39.2 °F37 %29.95 in2.5 miNNE (20°)3.5 mphSmoke
8:30 PM65.0 °F43.0 °F34 %29.99 in2.0 miNorth2.3 mph
8:40 PM64.4 °F39.2 °F40 %29.95 in2.5 miNE (40°)4.6 mphSmoke
9:10 PM62.6 °F39.2 °F42 %29.98 in2.5 miENE (60°)3.5 mphSmoke
9:40 PM62.6 °F41.0 °F45 %29.98 in2.5 miNorth (10°)3.5 mphSmoke
10:10 PM59.0 °F39.2 °F48 %29.98 in2.5 miNE (50°)3.5 mphSmoke
10:40 PM59.0 °F41.0 °F51 %29.98 in2.5 miNE (40°)3.5 mphSmoke
11:10 PM57.2 °F39.2 °F51 %29.98 in2.5 miNE (50°)3.5 mphSmoke
11:30 PM60.0 °F43.0 °F41 %30.01 in2.0 miCalm
11:40 PM57.2 °F37.4 °F48 %29.98 in2.5 miNE (40°)3.5 mphSmoke
Hourly data recorded from VAAH, located miles away from Ahmedabad, India







STORIES FROM OUR PARTNERS